locationName,lineName,date,time,countIn,countOut
�����w�O,��������,2022/4/1,0:00,0,0
�����w�O,��������,2022/4/1,1:00,0,0
�����w�O,��������,2022/4/1,2:00,0,0
�����w�O,��������,2022/4/1,3:00,0,0
�����w�O,��������,2022/4/1,4:00,0,0
�����w�O,��������,2022/4/1,5:00,0,0
�����w�O,��������,2022/4/1,6:00,0,0
�����w�O,��������,2022/4/1,7:00,0,0
�����w�O,��������,2022/4/1,8:00,0,0
�����w�O,��������,2022/4/1,9:00,0,0
�����w�O,��������,2022/4/1,10:00,0,0
�����w�O,��������,2022/4/1,11:00,0,0
�����w�O,��������,2022/4/1,12:00,0,0
�����w�O,��������,2022/4/1,13:00,296,190
�����w�O,��������,2022/4/1,14:00,54,38
�����w�O,��������,2022/4/1,15:00,417,239
�����w�O,��������,2022/4/1,16:00,381,238
�����w�O,��������,2022/4/1,17:00,407,235
�����w�O,��������,2022/4/1,18:00,313,221
�����w�O,��������,2022/4/1,19:00,193,181
�����w�O,��������,2022/4/1,20:00,120,92
�����w�O,��������,2022/4/1,21:00,117,69
�����w�O,��������,2022/4/1,22:00,53,35
�����w�O,��������,2022/4/1,23:00,29,9
�����w�O,��������,2022/4/2,0:00,9,5
�����w�O,��������,2022/4/2,1:00,2,1
�����w�O,��������,2022/4/2,2:00,1,0
�����w�O,��������,2022/4/2,3:00,1,2
�����w�O,��������,2022/4/2,4:00,5,0
�����w�O,��������,2022/4/2,5:00,9,9
�����w�O,��������,2022/4/2,6:00,63,45
�����w�O,��������,2022/4/2,7:00,77,82
�����w�O,��������,2022/4/2,8:00,149,230
�����w�O,��������,2022/4/2,9:00,240,422
�����w�O,��������,2022/4/2,10:00,399,683
�����w�O,��������,2022/4/2,11:00,402,686
�����w�O,��������,2022/4/2,12:00,435,644
�����w�O,��������,2022/4/2,13:00,449,461
�����w�O,��������,2022/4/2,14:00,562,527
�����w�O,��������,2022/4/2,15:00,726,430
�����w�O,��������,2022/4/2,16:00,580,351
�����w�O,��������,2022/4/2,17:00,522,350
�����w�O,��������,2022/4/2,18:00,391,236
�����w�O,��������,2022/4/2,19:00,256,210
�����w�O,��������,2022/4/2,20:00,200,126
�����w�O,��������,2022/4/2,21:00,120,74
�����w�O,��������,2022/4/2,22:00,97,59
�����w�O,��������,2022/4/2,23:00,36,17
�����w�O,��������,2022/4/3,0:00,10,4
�����w�O,��������,2022/4/3,1:00,4,3
�����w�O,��������,2022/4/3,2:00,4,1
�����w�O,��������,2022/4/3,3:00,1,3
�����w�O,��������,2022/4/3,4:00,5,3
�����w�O,��������,2022/4/3,5:00,8,9
�����w�O,��������,2022/4/3,6:00,44,52
�����w�O,��������,2022/4/3,7:00,138,138
�����w�O,��������,2022/4/3,8:00,198,283
�����w�O,��������,2022/4/3,9:00,271,451
�����w�O,��������,2022/4/3,10:00,407,678
�����w�O,��������,2022/4/3,11:00,416,771
�����w�O,��������,2022/4/3,12:00,536,648
�����w�O,��������,2022/4/3,13:00,574,558
�����w�O,��������,2022/4/3,14:00,713,587
�����w�O,��������,2022/4/3,15:00,796,476
�����w�O,��������,2022/4/3,16:00,755,389
�����w�O,��������,2022/4/3,17:00,666,325
�����w�O,��������,2022/4/3,18:00,397,275
�����w�O,��������,2022/4/3,19:00,354,280
�����w�O,��������,2022/4/3,20:00,126,91
�����w�O,��������,2022/4/3,21:00,95,64
�����w�O,��������,2022/4/3,22:00,53,27
�����w�O,��������,2022/4/3,23:00,27,11
�����w�O,��������,2022/4/4,0:00,7,2
�����w�O,��������,2022/4/4,1:00,3,1
�����w�O,��������,2022/4/4,2:00,1,0
�����w�O,��������,2022/4/4,3:00,0,1
�����w�O,��������,2022/4/4,4:00,2,2
�����w�O,��������,2022/4/4,5:00,8,8
�����w�O,��������,2022/4/4,6:00,87,57
�����w�O,��������,2022/4/4,7:00,167,186
�����w�O,��������,2022/4/4,8:00,158,279
�����w�O,��������,2022/4/4,9:00,173,208
�����w�O,��������,2022/4/4,10:00,263,401
�����w�O,��������,2022/4/4,11:00,235,415
�����w�O,��������,2022/4/4,12:00,366,359
�����w�O,��������,2022/4/4,13:00,370,306
�����w�O,��������,2022/4/4,14:00,430,316
�����w�O,��������,2022/4/4,15:00,426,263
�����w�O,��������,2022/4/4,16:00,373,256
�����w�O,��������,2022/4/4,17:00,407,236
�����w�O,��������,2022/4/4,18:00,329,262
�����w�O,��������,2022/4/4,19:00,192,196
�����w�O,��������,2022/4/4,20:00,144,99
�����w�O,��������,2022/4/4,21:00,116,60
�����w�O,��������,2022/4/4,22:00,29,25
�����w�O,��������,2022/4/4,23:00,8,5
�����w�O,��������,2022/4/5,0:00,3,0
�����w�O,��������,2022/4/5,1:00,2,0
�����w�O,��������,2022/4/5,2:00,1,0
�����w�O,��������,2022/4/5,3:00,2,4
�����w�O,��������,2022/4/5,4:00,3,0
�����w�O,��������,2022/4/5,5:00,7,8
�����w�O,��������,2022/4/5,6:00,75,63
�����w�O,��������,2022/4/5,7:00,161,189
�����w�O,��������,2022/4/5,8:00,142,270
�����w�O,��������,2022/4/5,9:00,149,234
�����w�O,��������,2022/4/5,10:00,252,395
�����w�O,��������,2022/4/5,11:00,304,421
�����w�O,��������,2022/4/5,12:00,339,341
�����w�O,��������,2022/4/5,13:00,329,288
�����w�O,��������,2022/4/5,14:00,349,233
�����w�O,��������,2022/4/5,15:00,358,187
�����w�O,��������,2022/4/5,16:00,366,234
�����w�O,��������,2022/4/5,17:00,340,211
�����w�O,��������,2022/4/5,18:00,266,179
�����w�O,��������,2022/4/5,19:00,167,199
�����w�O,��������,2022/4/5,20:00,106,81
�����w�O,��������,2022/4/5,21:00,96,44
�����w�O,��������,2022/4/5,22:00,47,25
�����w�O,��������,2022/4/5,23:00,11,10
�����w�O,��������,2022/4/6,0:00,10,4
�����w�O,��������,2022/4/6,1:00,1,0
�����w�O,��������,2022/4/6,2:00,1,0
�����w�O,��������,2022/4/6,3:00,0,3
�����w�O,��������,2022/4/6,4:00,4,3
�����w�O,��������,2022/4/6,5:00,12,14
�����w�O,��������,2022/4/6,6:00,78,57
�����w�O,��������,2022/4/6,7:00,201,324
�����w�O,��������,2022/4/6,8:00,145,279
�����w�O,��������,2022/4/6,9:00,147,197
�����w�O,��������,2022/4/6,10:00,165,232
�����w�O,��������,2022/4/6,11:00,269,309
�����w�O,��������,2022/4/6,12:00,321,283
�����w�O,��������,2022/4/6,13:00,332,206
�����w�O,��������,2022/4/6,14:00,307,249
�����w�O,��������,2022/4/6,15:00,296,188
�����w�O,��������,2022/4/6,16:00,304,200
�����w�O,��������,2022/4/6,17:00,342,214
�����w�O,��������,2022/4/6,18:00,307,250
�����w�O,��������,2022/4/6,19:00,163,166
�����w�O,��������,2022/4/6,20:00,131,72
�����w�O,��������,2022/4/6,21:00,94,83
�����w�O,��������,2022/4/6,22:00,41,28
�����w�O,��������,2022/4/6,23:00,29,13
�����w�O,��������,2022/4/7,0:00,12,13
�����w�O,��������,2022/4/7,1:00,6,2
�����w�O,��������,2022/4/7,2:00,2,0
�����w�O,��������,2022/4/7,3:00,0,2
�����w�O,��������,2022/4/7,4:00,2,1
�����w�O,��������,2022/4/7,5:00,9,11
�����w�O,��������,2022/4/7,6:00,76,45
�����w�O,��������,2022/4/7,7:00,177,159
�����w�O,��������,2022/4/7,8:00,121,210
�����w�O,��������,2022/4/7,9:00,132,141
�����w�O,��������,2022/4/7,10:00,190,266
�����w�O,��������,2022/4/7,11:00,204,292
�����w�O,��������,2022/4/7,12:00,278,257
�����w�O,��������,2022/4/7,13:00,239,221
�����w�O,��������,2022/4/7,14:00,234,182
�����w�O,��������,2022/4/7,15:00,279,163
�����w�O,��������,2022/4/7,16:00,263,197
�����w�O,��������,2022/4/7,17:00,468,282
�����w�O,��������,2022/4/7,18:00,307,239
�����w�O,��������,2022/4/7,19:00,117,111
�����w�O,��������,2022/4/7,20:00,99,61
�����w�O,��������,2022/4/7,21:00,105,72
�����w�O,��������,2022/4/7,22:00,37,29
�����w�O,��������,2022/4/7,23:00,15,14
�����w�O,��������,2022/4/8,0:00,8,4
�����w�O,��������,2022/4/8,1:00,2,2
�����w�O,��������,2022/4/8,2:00,1,0
�����w�O,��������,2022/4/8,3:00,0,3
�����w�O,��������,2022/4/8,4:00,7,5
�����w�O,��������,2022/4/8,5:00,8,6
�����w�O,��������,2022/4/8,6:00,84,66
�����w�O,��������,2022/4/8,7:00,224,333
�����w�O,��������,2022/4/8,8:00,131,315
�����w�O,��������,2022/4/8,9:00,134,156
�����w�O,��������,2022/4/8,10:00,176,226
�����w�O,��������,2022/4/8,11:00,191,263
�����w�O,��������,2022/4/8,12:00,219,236
�����w�O,��������,2022/4/8,13:00,252,208
�����w�O,��������,2022/4/8,14:00,282,196
�����w�O,��������,2022/4/8,15:00,318,164
�����w�O,��������,2022/4/8,16:00,394,261
�����w�O,��������,2022/4/8,17:00,352,227
�����w�O,��������,2022/4/8,18:00,266,226
�����w�O,��������,2022/4/8,19:00,228,177
�����w�O,��������,2022/4/8,20:00,147,130
�����w�O,��������,2022/4/8,21:00,109,68
�����w�O,��������,2022/4/8,22:00,78,38
�����w�O,��������,2022/4/8,23:00,24,15
�����w�O,��������,2022/4/9,0:00,23,4
�����w�O,��������,2022/4/9,1:00,7,6
�����w�O,��������,2022/4/9,2:00,10,4
�����w�O,��������,2022/4/9,3:00,3,5
�����w�O,��������,2022/4/9,4:00,3,0
�����w�O,��������,2022/4/9,5:00,10,7
�����w�O,��������,2022/4/9,6:00,55,45
�����w�O,��������,2022/4/9,7:00,93,121
�����w�O,��������,2022/4/9,8:00,174,192
�����w�O,��������,2022/4/9,9:00,180,285
�����w�O,��������,2022/4/9,10:00,267,424
�����w�O,��������,2022/4/9,11:00,234,322
�����w�O,��������,2022/4/9,12:00,273,348
�����w�O,��������,2022/4/9,13:00,305,255
�����w�O,��������,2022/4/9,14:00,411,308
�����w�O,��������,2022/4/9,15:00,377,226
�����w�O,��������,2022/4/9,16:00,361,244
�����w�O,��������,2022/4/9,17:00,330,227
�����w�O,��������,2022/4/9,18:00,252,227
�����w�O,��������,2022/4/9,19:00,254,201
�����w�O,��������,2022/4/9,20:00,227,174
�����w�O,��������,2022/4/9,21:00,115,64
�����w�O,��������,2022/4/9,22:00,52,41
�����w�O,��������,2022/4/9,23:00,38,26
�����w�O,��������,2022/4/10,0:00,10,2
�����w�O,��������,2022/4/10,1:00,1,4
�����w�O,��������,2022/4/10,2:00,1,0
�����w�O,��������,2022/4/10,3:00,3,2
�����w�O,��������,2022/4/10,4:00,1,0
�����w�O,��������,2022/4/10,5:00,9,9
�����w�O,��������,2022/4/10,6:00,46,39
�����w�O,��������,2022/4/10,7:00,68,91
�����w�O,��������,2022/4/10,8:00,121,113
�����w�O,��������,2022/4/10,9:00,242,345
�����w�O,��������,2022/4/10,10:00,263,320
�����w�O,��������,2022/4/10,11:00,290,438
�����w�O,��������,2022/4/10,12:00,333,402
�����w�O,��������,2022/4/10,13:00,321,315
�����w�O,��������,2022/4/10,14:00,470,356
�����w�O,��������,2022/4/10,15:00,389,314
�����w�O,��������,2022/4/10,16:00,402,271
�����w�O,��������,2022/4/10,17:00,289,192
�����w�O,��������,2022/4/10,18:00,218,141
�����w�O,��������,2022/4/10,19:00,138,122
�����w�O,��������,2022/4/10,20:00,133,96
�����w�O,��������,2022/4/10,21:00,49,42
�����w�O,��������,2022/4/10,22:00,31,23
�����w�O,��������,2022/4/10,23:00,11,8
�����w�O,��������,2022/4/11,0:00,3,2
�����w�O,��������,2022/4/11,1:00,0,1
�����w�O,��������,2022/4/11,2:00,1,1
�����w�O,��������,2022/4/11,3:00,1,0
�����w�O,��������,2022/4/11,4:00,5,1
�����w�O,��������,2022/4/11,5:00,8,8
�����w�O,��������,2022/4/11,6:00,92,69
�����w�O,��������,2022/4/11,7:00,214,313
�����w�O,��������,2022/4/11,8:00,136,275
�����w�O,��������,2022/4/11,9:00,166,173
�����w�O,��������,2022/4/11,10:00,147,161
�����w�O,��������,2022/4/11,11:00,163,160
�����w�O,��������,2022/4/11,12:00,210,187
�����w�O,��������,2022/4/11,13:00,186,136
�����w�O,��������,2022/4/11,14:00,165,142
�����w�O,��������,2022/4/11,15:00,215,139
�����w�O,��������,2022/4/11,16:00,392,198
�����w�O,��������,2022/4/11,17:00,305,184
�����w�O,��������,2022/4/11,18:00,229,152
�����w�O,��������,2022/4/11,19:00,139,139
�����w�O,��������,2022/4/11,20:00,93,108
�����w�O,��������,2022/4/11,21:00,289,205
�����w�O,��������,2022/4/11,22:00,30,19
�����w�O,��������,2022/4/11,23:00,13,7
�����w�O,��������,2022/4/12,0:00,3,0
�����w�O,��������,2022/4/12,1:00,2,0
�����w�O,��������,2022/4/12,2:00,4,1
�����w�O,��������,2022/4/12,3:00,1,3
�����w�O,��������,2022/4/12,4:00,5,4
�����w�O,��������,2022/4/12,5:00,12,8
�����w�O,��������,2022/4/12,6:00,105,77
�����w�O,��������,2022/4/12,7:00,214,317
�����w�O,��������,2022/4/12,8:00,157,283
�����w�O,��������,2022/4/12,9:00,105,116
�����w�O,��������,2022/4/12,10:00,125,121
�����w�O,��������,2022/4/12,11:00,135,143
�����w�O,��������,2022/4/12,12:00,171,185
�����w�O,��������,2022/4/12,13:00,185,126
�����w�O,��������,2022/4/12,14:00,126,132
�����w�O,��������,2022/4/12,15:00,227,110
�����w�O,��������,2022/4/12,16:00,274,183
�����w�O,��������,2022/4/12,17:00,287,141
�����w�O,��������,2022/4/12,18:00,259,171
�����w�O,��������,2022/4/12,19:00,181,157
�����w�O,��������,2022/4/12,20:00,192,157
�����w�O,��������,2022/4/12,21:00,227,103
�����w�O,��������,2022/4/12,22:00,48,20
�����w�O,��������,2022/4/12,23:00,12,7
�����w�O,��������,2022/4/13,0:00,3,4
�����w�O,��������,2022/4/13,1:00,0,0
�����w�O,��������,2022/4/13,2:00,1,0
�����w�O,��������,2022/4/13,3:00,2,2
�����w�O,��������,2022/4/13,4:00,3,2
�����w�O,��������,2022/4/13,5:00,6,7
�����w�O,��������,2022/4/13,6:00,89,59
�����w�O,��������,2022/4/13,7:00,224,319
�����w�O,��������,2022/4/13,8:00,129,248
�����w�O,��������,2022/4/13,9:00,118,125
�����w�O,��������,2022/4/13,10:00,118,105
�����w�O,��������,2022/4/13,11:00,129,139
�����w�O,��������,2022/4/13,12:00,142,144
�����w�O,��������,2022/4/13,13:00,137,138
�����w�O,��������,2022/4/13,14:00,143,159
�����w�O,��������,2022/4/13,15:00,187,119
�����w�O,��������,2022/4/13,16:00,288,163
�����w�O,��������,2022/4/13,17:00,350,180
�����w�O,��������,2022/4/13,18:00,297,226
�����w�O,��������,2022/4/13,19:00,149,153
�����w�O,��������,2022/4/13,20:00,85,55
�����w�O,��������,2022/4/13,21:00,101,67
�����w�O,��������,2022/4/13,22:00,34,25
�����w�O,��������,2022/4/13,23:00,23,7
�����w�O,��������,2022/4/14,0:00,8,1
�����w�O,��������,2022/4/14,1:00,3,1
�����w�O,��������,2022/4/14,2:00,2,0
�����w�O,��������,2022/4/14,3:00,1,1
�����w�O,��������,2022/4/14,4:00,2,2
�����w�O,��������,2022/4/14,5:00,13,12
�����w�O,��������,2022/4/14,6:00,84,72
�����w�O,��������,2022/4/14,7:00,211,401
�����w�O,��������,2022/4/14,8:00,116,264
�����w�O,��������,2022/4/14,9:00,97,80
�����w�O,��������,2022/4/14,10:00,87,98
�����w�O,��������,2022/4/14,11:00,103,125
�����w�O,��������,2022/4/14,12:00,115,118
�����w�O,��������,2022/4/14,13:00,103,83
�����w�O,��������,2022/4/14,14:00,106,128
�����w�O,��������,2022/4/14,15:00,144,87
�����w�O,��������,2022/4/14,16:00,264,159
�����w�O,��������,2022/4/14,17:00,358,157
�����w�O,��������,2022/4/14,18:00,306,172
�����w�O,��������,2022/4/14,19:00,120,122
�����w�O,��������,2022/4/14,20:00,88,55
�����w�O,��������,2022/4/14,21:00,72,49
�����w�O,��������,2022/4/14,22:00,41,24
�����w�O,��������,2022/4/14,23:00,15,7
�����w�O,��������,2022/4/15,0:00,4,4
�����w�O,��������,2022/4/15,1:00,2,0
�����w�O,��������,2022/4/15,2:00,0,0
�����w�O,��������,2022/4/15,3:00,1,2
�����w�O,��������,2022/4/15,4:00,2,2
�����w�O,��������,2022/4/15,5:00,10,11
�����w�O,��������,2022/4/15,6:00,95,62
�����w�O,��������,2022/4/15,7:00,205,327
�����w�O,��������,2022/4/15,8:00,145,291
�����w�O,��������,2022/4/15,9:00,135,169
�����w�O,��������,2022/4/15,10:00,232,198
�����w�O,��������,2022/4/15,11:00,237,247
�����w�O,��������,2022/4/15,12:00,206,224
�����w�O,��������,2022/4/15,13:00,308,240
�����w�O,��������,2022/4/15,14:00,182,167
�����w�O,��������,2022/4/15,15:00,264,139
�����w�O,��������,2022/4/15,16:00,299,197
�����w�O,��������,2022/4/15,17:00,320,188
�����w�O,��������,2022/4/15,18:00,277,194
�����w�O,��������,2022/4/15,19:00,163,157
�����w�O,��������,2022/4/15,20:00,119,94
�����w�O,��������,2022/4/15,21:00,244,118
�����w�O,��������,2022/4/15,22:00,67,33
�����w�O,��������,2022/4/15,23:00,19,10
�����w�O,��������,2022/4/16,0:00,9,2
�����w�O,��������,2022/4/16,1:00,10,1
�����w�O,��������,2022/4/16,2:00,3,1
�����w�O,��������,2022/4/16,3:00,2,4
�����w�O,��������,2022/4/16,4:00,5,1
�����w�O,��������,2022/4/16,5:00,9,8
�����w�O,��������,2022/4/16,6:00,47,41
�����w�O,��������,2022/4/16,7:00,83,167
�����w�O,��������,2022/4/16,8:00,182,238
�����w�O,��������,2022/4/16,9:00,200,201
�����w�O,��������,2022/4/16,10:00,232,286
�����w�O,��������,2022/4/16,11:00,290,388
�����w�O,��������,2022/4/16,12:00,296,317
�����w�O,��������,2022/4/16,13:00,431,317
�����w�O,��������,2022/4/16,14:00,346,304
�����w�O,��������,2022/4/16,15:00,472,334
�����w�O,��������,2022/4/16,16:00,381,254
�����w�O,��������,2022/4/16,17:00,306,230
�����w�O,��������,2022/4/16,18:00,260,222
�����w�O,��������,2022/4/16,19:00,190,181
�����w�O,��������,2022/4/16,20:00,155,97
�����w�O,��������,2022/4/16,21:00,249,131
�����w�O,��������,2022/4/16,22:00,78,40
�����w�O,��������,2022/4/16,23:00,41,24
�����w�O,��������,2022/4/17,0:00,8,1
�����w�O,��������,2022/4/17,1:00,7,1
�����w�O,��������,2022/4/17,2:00,2,0
�����w�O,��������,2022/4/17,3:00,3,2
�����w�O,��������,2022/4/17,4:00,4,3
�����w�O,��������,2022/4/17,5:00,20,18
�����w�O,��������,2022/4/17,6:00,45,49
�����w�O,��������,2022/4/17,7:00,111,113
�����w�O,��������,2022/4/17,8:00,117,137
�����w�O,��������,2022/4/17,9:00,190,188
�����w�O,��������,2022/4/17,10:00,310,434
�����w�O,��������,2022/4/17,11:00,358,456
�����w�O,��������,2022/4/17,12:00,289,317
�����w�O,��������,2022/4/17,13:00,330,260
�����w�O,��������,2022/4/17,14:00,341,292
�����w�O,��������,2022/4/17,15:00,395,247
�����w�O,��������,2022/4/17,16:00,385,233
�����w�O,��������,2022/4/17,17:00,320,230
�����w�O,��������,2022/4/17,18:00,244,179
�����w�O,��������,2022/4/17,19:00,179,192
�����w�O,��������,2022/4/17,20:00,97,105
�����w�O,��������,2022/4/17,21:00,76,58
�����w�O,��������,2022/4/17,22:00,42,14
�����w�O,��������,2022/4/17,23:00,16,5
�����w�O,��������,2022/4/18,0:00,5,3
�����w�O,��������,2022/4/18,1:00,4,1
�����w�O,��������,2022/4/18,2:00,0,1
�����w�O,��������,2022/4/18,3:00,0,1
�����w�O,��������,2022/4/18,4:00,3,1
�����w�O,��������,2022/4/18,5:00,17,12
�����w�O,��������,2022/4/18,6:00,106,72
�����w�O,��������,2022/4/18,7:00,214,335
�����w�O,��������,2022/4/18,8:00,146,281
�����w�O,��������,2022/4/18,9:00,173,134
�����w�O,��������,2022/4/18,10:00,191,186
�����w�O,��������,2022/4/18,11:00,184,217
�����w�O,��������,2022/4/18,12:00,204,179
�����w�O,��������,2022/4/18,13:00,221,160
�����w�O,��������,2022/4/18,14:00,215,173
�����w�O,��������,2022/4/18,15:00,244,164
�����w�O,��������,2022/4/18,16:00,340,182
�����w�O,��������,2022/4/18,17:00,285,197
�����w�O,��������,2022/4/18,18:00,372,215
�����w�O,��������,2022/4/18,19:00,176,161
�����w�O,��������,2022/4/18,20:00,113,87
�����w�O,��������,2022/4/18,21:00,53,56
�����w�O,��������,2022/4/18,22:00,25,18
�����w�O,��������,2022/4/18,23:00,8,4
�����w�O,��������,2022/4/19,0:00,1,2
�����w�O,��������,2022/4/19,1:00,2,0
�����w�O,��������,2022/4/19,2:00,1,0
�����w�O,��������,2022/4/19,3:00,0,0
�����w�O,��������,2022/4/19,4:00,7,5
�����w�O,��������,2022/4/19,5:00,10,10
�����w�O,��������,2022/4/19,6:00,103,67
�����w�O,��������,2022/4/19,7:00,213,305
�����w�O,��������,2022/4/19,8:00,117,272
�����w�O,��������,2022/4/19,9:00,116,112
�����w�O,��������,2022/4/19,10:00,176,186
�����w�O,��������,2022/4/19,11:00,170,183
�����w�O,��������,2022/4/19,12:00,198,180
�����w�O,��������,2022/4/19,13:00,188,166
�����w�O,��������,2022/4/19,14:00,143,130
�����w�O,��������,2022/4/19,15:00,246,135
�����w�O,��������,2022/4/19,16:00,261,175
�����w�O,��������,2022/4/19,17:00,338,189
�����w�O,��������,2022/4/19,18:00,268,211
�����w�O,��������,2022/4/19,19:00,197,182
�����w�O,��������,2022/4/19,20:00,126,72
�����w�O,��������,2022/4/19,21:00,215,153
�����w�O,��������,2022/4/19,22:00,63,29
�����w�O,��������,2022/4/19,23:00,16,9
�����w�O,��������,2022/4/20,0:00,3,5
�����w�O,��������,2022/4/20,1:00,0,0
�����w�O,��������,2022/4/20,2:00,1,0
�����w�O,��������,2022/4/20,3:00,0,2
�����w�O,��������,2022/4/20,4:00,8,2
�����w�O,��������,2022/4/20,5:00,14,13
�����w�O,��������,2022/4/20,6:00,99,66
�����w�O,��������,2022/4/20,7:00,229,322
�����w�O,��������,2022/4/20,8:00,114,282
�����w�O,��������,2022/4/20,9:00,141,136
�����w�O,��������,2022/4/20,10:00,156,152
�����w�O,��������,2022/4/20,11:00,158,173
�����w�O,��������,2022/4/20,12:00,181,151
�����w�O,��������,2022/4/20,13:00,197,145
�����w�O,��������,2022/4/20,14:00,140,148
�����w�O,��������,2022/4/20,15:00,235,143
�����w�O,��������,2022/4/20,16:00,278,191
�����w�O,��������,2022/4/20,17:00,386,283
�����w�O,��������,2022/4/20,18:00,291,229
�����w�O,��������,2022/4/20,19:00,226,190
�����w�O,��������,2022/4/20,20:00,109,88
�����w�O,��������,2022/4/20,21:00,125,57
�����w�O,��������,2022/4/20,22:00,24,16
�����w�O,��������,2022/4/20,23:00,21,13
�����w�O,��������,2022/4/21,0:00,7,9
�����w�O,��������,2022/4/21,1:00,7,1
�����w�O,��������,2022/4/21,2:00,1,0
�����w�O,��������,2022/4/21,3:00,1,1
�����w�O,��������,2022/4/21,4:00,5,3
�����w�O,��������,2022/4/21,5:00,11,10
�����w�O,��������,2022/4/21,6:00,97,52
�����w�O,��������,2022/4/21,7:00,202,358
�����w�O,��������,2022/4/21,8:00,113,270
�����w�O,��������,2022/4/21,9:00,124,131
�����w�O,��������,2022/4/21,10:00,134,163
�����w�O,��������,2022/4/21,11:00,151,175
�����w�O,��������,2022/4/21,12:00,146,114
�����w�O,��������,2022/4/21,13:00,208,111
�����w�O,��������,2022/4/21,14:00,147,102
�����w�O,��������,2022/4/21,15:00,183,89
�����w�O,��������,2022/4/21,16:00,211,169
�����w�O,��������,2022/4/21,17:00,264,141
�����w�O,��������,2022/4/21,18:00,271,176
�����w�O,��������,2022/4/21,19:00,280,222
�����w�O,��������,2022/4/21,20:00,79,49
�����w�O,��������,2022/4/21,21:00,70,45
�����w�O,��������,2022/4/21,22:00,25,21
�����w�O,��������,2022/4/21,23:00,29,8
�����w�O,��������,2022/4/22,0:00,7,1
�����w�O,��������,2022/4/22,1:00,1,0
�����w�O,��������,2022/4/22,2:00,0,0
�����w�O,��������,2022/4/22,3:00,0,3
�����w�O,��������,2022/4/22,4:00,5,4
�����w�O,��������,2022/4/22,5:00,14,8
�����w�O,��������,2022/4/22,6:00,101,68
�����w�O,��������,2022/4/22,7:00,211,326
�����w�O,��������,2022/4/22,8:00,126,306
�����w�O,��������,2022/4/22,9:00,149,152
�����w�O,��������,2022/4/22,10:00,214,237
�����w�O,��������,2022/4/22,11:00,221,227
�����w�O,��������,2022/4/22,12:00,286,254
�����w�O,��������,2022/4/22,13:00,373,312
�����w�O,��������,2022/4/22,14:00,206,223
�����w�O,��������,2022/4/22,15:00,227,135
�����w�O,��������,2022/4/22,16:00,288,193
�����w�O,��������,2022/4/22,17:00,356,197
�����w�O,��������,2022/4/22,18:00,332,233
�����w�O,��������,2022/4/22,19:00,264,231
�����w�O,��������,2022/4/22,20:00,110,113
�����w�O,��������,2022/4/22,21:00,134,116
�����w�O,��������,2022/4/22,22:00,86,37
�����w�O,��������,2022/4/22,23:00,30,10
�����w�O,��������,2022/4/23,0:00,7,8
�����w�O,��������,2022/4/23,1:00,4,1
�����w�O,��������,2022/4/23,2:00,6,1
�����w�O,��������,2022/4/23,3:00,3,1
�����w�O,��������,2022/4/23,4:00,1,1
�����w�O,��������,2022/4/23,5:00,14,9
�����w�O,��������,2022/4/23,6:00,54,48
�����w�O,��������,2022/4/23,7:00,76,83
�����w�O,��������,2022/4/23,8:00,128,118
�����w�O,��������,2022/4/23,9:00,208,316
�����w�O,��������,2022/4/23,10:00,295,377
�����w�O,��������,2022/4/23,11:00,206,314
�����w�O,��������,2022/4/23,12:00,290,313
�����w�O,��������,2022/4/23,13:00,326,320
�����w�O,��������,2022/4/23,14:00,335,285
�����w�O,��������,2022/4/23,15:00,309,254
�����w�O,��������,2022/4/23,16:00,371,204
�����w�O,��������,2022/4/23,17:00,287,194
�����w�O,��������,2022/4/23,18:00,219,210
�����w�O,��������,2022/4/23,19:00,164,177
�����w�O,��������,2022/4/23,20:00,123,78
�����w�O,��������,2022/4/23,21:00,73,62
�����w�O,��������,2022/4/23,22:00,66,27
�����w�O,��������,2022/4/23,23:00,26,16
�����w�O,��������,2022/4/24,0:00,16,2
�����w�O,��������,2022/4/24,1:00,2,0
�����w�O,��������,2022/4/24,2:00,2,0
�����w�O,��������,2022/4/24,3:00,3,2
�����w�O,��������,2022/4/24,4:00,4,2
�����w�O,��������,2022/4/24,5:00,4,3
�����w�O,��������,2022/4/24,6:00,28,24
�����w�O,��������,2022/4/24,7:00,55,76
�����w�O,��������,2022/4/24,8:00,91,106
�����w�O,��������,2022/4/24,9:00,149,124
�����w�O,��������,2022/4/24,10:00,181,195
�����w�O,��������,2022/4/24,11:00,144,214
�����w�O,��������,2022/4/24,12:00,197,260
�����w�O,��������,2022/4/24,13:00,254,167
�����w�O,��������,2022/4/24,14:00,258,176
�����w�O,��������,2022/4/24,15:00,227,185
�����w�O,��������,2022/4/24,16:00,277,135
�����w�O,��������,2022/4/24,17:00,221,172
�����w�O,��������,2022/4/24,18:00,186,150
�����w�O,��������,2022/4/24,19:00,85,103
�����w�O,��������,2022/4/24,20:00,66,64
�����w�O,��������,2022/4/24,21:00,37,35
�����w�O,��������,2022/4/24,22:00,82,114
�����w�O,��������,2022/4/24,23:00,60,88
�����w�O,��������,2022/4/25,0:00,16,20
�����w�O,��������,2022/4/25,1:00,1,1
�����w�O,��������,2022/4/25,2:00,3,0
�����w�O,��������,2022/4/25,3:00,0,0
�����w�O,��������,2022/4/25,4:00,1,1
�����w�O,��������,2022/4/25,5:00,13,10
�����w�O,��������,2022/4/25,6:00,106,56
�����w�O,��������,2022/4/25,7:00,215,325
�����w�O,��������,2022/4/25,8:00,130,253
�����w�O,��������,2022/4/25,9:00,134,149